TimePST,TemperatureF,Dew PointF,Humidity,Sea Level PressureIn,VisibilityMPH,Wind Direction,Wind SpeedMPH,Gust SpeedMPH,PrecipitationIn,Events,Conditions,WindDirDegrees,DateUTC
12:51 AM,50.0,43.0,77,30.24,10.0,Calm,Calm,-,N/A,,Scattered Clouds,0,2013-01-30 08:51:00
1:51 AM,48.9,42.1,77,30.25,10.0,Calm,Calm,-,N/A,,Scattered Clouds,0,2013-01-30 09:51:00
2:51 AM,48.9,42.1,77,30.26,10.0,Calm,Calm,-,N/A,,Partly Cloudy,0,2013-01-30 10:51:00
3:51 AM,48.0,42.1,80,30.27,10.0,Calm,Calm,-,N/A,,Scattered Clouds,0,2013-01-30 11:51:00
4:51 AM,46.9,42.1,83,30.27,10.0,Calm,Calm,-,N/A,,Scattered Clouds,0,2013-01-30 12:51:00
5:51 AM,48.9,42.1,77,30.29,10.0,Calm,Calm,-,N/A,,Scattered Clouds,0,2013-01-30 13:51:00
6:51 AM,48.0,41.0,77,30.32,10.0,Calm,Calm,-,N/A,,Partly Cloudy,0,2013-01-30 14:51:00
7:51 AM,51.1,44.1,77,30.34,10.0,Calm,Calm,-,N/A,,Partly Cloudy,0,2013-01-30 15:51:00
8:51 AM,55.0,43.0,64,30.35,10.0,Calm,Calm,-,N/A,,Partly Cloudy,0,2013-01-30 16:51:00
9:51 AM,60.1,44.1,55,30.34,10.0,Calm,Calm,-,N/A,,Partly Cloudy,0,2013-01-30 17:51:00
10:51 AM,63.0,41.0,45,30.32,10.0,North,5.8,-,N/A,,Partly Cloudy,10,2013-01-30 18:51:00
11:51 AM,64.0,44.1,48,30.29,10.0,WNW,8.1,-,N/A,,Partly Cloudy,300,2013-01-30 19:51:00
12:51 PM,66.0,44.1,45,30.26,10.0,WNW,9.2,-,N/A,,Partly Cloudy,290,2013-01-30 20:51:00
1:51 PM,66.0,44.1,45,30.24,10.0,NW,6.9,-,N/A,,Partly Cloudy,310,2013-01-30 21:51:00
2:51 PM,66.9,35.1,31,30.22,10.0,NNW,11.5,-,N/A,,Partly Cloudy,330,2013-01-30 22:51:00
3:51 PM,66.9,37.9,34,30.22,10.0,NW,8.1,-,N/A,,Partly Cloudy,320,2013-01-30 23:51:00
4:51 PM,64.9,36.0,34,30.22,10.0,WNW,5.8,-,N/A,,Partly Cloudy,300,2013-01-31 00:51:00
5:51 PM,63.0,37.9,40,30.22,10.0,NW,3.5,-,N/A,,Partly Cloudy,320,2013-01-31 01:51:00
6:51 PM,62.1,36.0,38,30.22,10.0,Calm,Calm,-,N/A,,Partly Cloudy,0,2013-01-31 02:51:00
7:51 PM,60.1,37.0,42,30.25,10.0,Calm,Calm,-,N/A,,Partly Cloudy,0,2013-01-31 03:51:00
8:51 PM,59.0,36.0,42,30.26,10.0,Calm,Calm,-,N/A,,Partly Cloudy,0,2013-01-31 04:51:00
9:51 PM,57.0,37.9,49,30.26,10.0,North,3.5,-,N/A,,Partly Cloudy,10,2013-01-31 05:51:00
10:51 PM,54.0,39.0,57,30.26,10.0,Calm,Calm,-,N/A,,Partly Cloudy,0,2013-01-31 06:51:00
11:51 PM,54.0,39.0,57,30.25,10.0,Calm,Calm,-,N/A,,Partly Cloudy,0,2013-01-31 07:51:00